Location: Bothwell
(42.3833°S, 147.0000°E)
Time: 20:47:36
(UTC+11:00)

CUBESAT XI-V - Pass Details

Date: 28 September 2022
Orbit: 666 x 689 km, 98.1° (Epoch: 25 November)

Event Time Altitude Azimuth Distance (km) Brightness Sun altitude
Rises 01:46:20 0° 152° (SSE) 3,085 ? -40.0°
Reaches altitude 10° 01:49:09 10° 135° (SE) 2,164 ? -39.7°
Enters shadow 01:50:14 14° 124° (SE) 1,883 ? -39.6°
